User: anonymous   Login
Location: Newark
(50.8311°N, 16.5142°E)
Time: 16:42:21
(UTC+00:00)
Language:

ESTCUBE 1 - Orbit

View from above orbital plane
View from above orbital plane
View from above satellite
View from above satellite

Ground track
Ground track

The orbit data is extracted from the following two-line orbital elements,

1 39161U 13021C   19343.23811655  .00000117  00000-0  26295-4 0  9995
2 39161  97.9783  64.9996 0010357 126.5614 233.6547 14.72258434353909
Epoch (UTC): 09 December 2019 05:42:53
Eccentricity: 0.0010357
inclination: 97.9783°
perigee height: 646 km
apogee height: 661 km
right ascension of ascending node: 64.9996°
argument of perigee: 126.5614°
revolutions per day: 14.72258434
mean anomaly at epoch: 233.6547°
orbit number at epoch: 35390

The dashed part of the orbit path shows where the satellite is in the earth's shadow,  

DLR